| time (UTC) | temp C | wind direction | speed KPH | gust KPH | rain 1hr cm | rain 24hr cm | rain mn cm | humidity % | barometer mb |
| 20260508133603 | 15 | 267 | 1.6 | 4.8 | 0.00 | 0.03 | 0.03 | 63 | 1016.9 |
| 20260508132703 | 15 | 253 | 1.6 | 6.4 | 0.00 | 0.03 | 0.03 | 62 | 1017.1 |
| 20260508131803 | 15 | 241 | 1.6 | 11.3 | 0.00 | 0.03 | 0.03 | 64 | 1017.0 |
| 20260508130903 | 15 | 249 | 1.6 | 4.8 | 0.00 | 0.03 | 0.03 | 62 | 1017.0 |
| 20260508130004 | 15 | 271 | 3.2 | 6.4 | 0.00 | 0.03 | 0.03 | 61 | 1016.9 |
| 20260508125403 | 15 | 286 | 3.2 | 6.4 | 0.00 | 0.03 | 0.03 | 61 | 1016.9 |
| 20260508124503 | 15 | 273 | 1.6 | 6.4 | 0.00 | 0.03 | 0.03 | 61 | 1016.8 |
| 20260508123603 | 15 | 280 | 1.6 | 6.4 | 0.00 | 0.03 | 0.03 | 61 | 1016.7 |
| 20260508122703 | 14 | 289 | 3.2 | 9.7 | 0.00 | 0.03 | 0.03 | 61 | 1016.7 |
| 20260508121803 | 14 | 278 | 3.2 | 6.4 | 0.00 | 0.03 | 0.03 | 62 | 1016.8 |
| 20260508121117 | 14 | 290 | 3.2 | 6.4 | 0.00 | 0.03 | 0.03 | 63 | 1016.9 |
| 20260508120003 | 14 | 274 | 3.2 | 12.9 | 0.00 | 0.03 | 0.03 | 65 | 1016.9 |
| 20260508115403 | 15 | 287 | 3.2 | 6.4 | 0.00 | 0.03 | 0.03 | 66 | 1016.8 |
| 20260508114503 | 15 | 287 | 3.2 | 6.4 | 0.00 | 0.03 | 0.03 | 65 | 1016.6 |
| 20260508113603 | 14 | 288 | 3.2 | 9.7 | 0.00 | 0.03 | 0.03 | 65 | 1016.6 |
| 20260508112918 | 14 | 284 | 3.2 | 9.7 | 0.00 | 0.03 | 0.03 | 68 | 1016.6 |
| 20260508111803 | 15 | 286 | 3.2 | 9.7 | 0.00 | 0.03 | 0.03 | 67 | 1016.5 |
| 20260508111118 | 15 | 284 | 3.2 | 6.4 | 0.00 | 0.03 | 0.03 | 64 | 1016.4 |
| 20260508110218 | 15 | 294 | 3.2 | 6.4 | 0.00 | 0.03 | 0.03 | 54 | 1016.4 |
| 20260508105403 | 15 | 307 | 3.2 | 6.4 | 0.00 | 0.03 | 0.03 | 57 | 1016.1 |
| 20260508104504 | 15 | 312 | 3.2 | 6.4 | 0.00 | 0.03 | 0.03 | 50 | 1016.3 |
| 20260508103603 | 15 | 285 | 3.2 | 6.4 | 0.00 | 0.03 | 0.03 | 51 | 1016.3 |
| 20260508102917 | 15 | 299 | 3.2 | 9.7 | 0.00 | 0.03 | 0.03 | 56 | 1016.4 |
| 20260508101803 | 14 | 285 | 3.2 | 9.7 | 0.00 | 0.03 | 0.03 | 59 | 1016.1 |
| 20260508100903 | 14 | 288 | 3.2 | 6.4 | 0.00 | 0.03 | 0.03 | 60 | 1016.2 |
| 20260508100004 | 13 | 287 | 3.2 | 6.4 | 0.00 | 0.03 | 0.03 | 63 | 1016.2 |
| 20260508095617 | 13 | 290 | 3.2 | 6.4 | 0.00 | 0.03 | 0.03 | 62 | 1016.2 |
| 20260508094503 | 13 | 289 | 3.2 | 6.4 | 0.00 | 0.03 | 0.03 | 63 | 1016.1 |
| 20260508093603 | 13 | 276 | 3.2 | 6.4 | 0.00 | 0.03 | 0.03 | 67 | 1016.1 |
| 20260508092703 | 12 | 287 | 3.2 | 6.4 | 0.00 | 0.03 | 0.03 | 67 | 1016.1 |
| 20260508091803 | 12 | 287 | 3.2 | 6.4 | 0.00 | 0.03 | 0.03 | 68 | 1016.0 |
| 20260508090903 | 12 | 278 | 1.6 | 6.4 | 0.00 | 0.03 | 0.03 | 70 | 1016.0 |
| 20260508090003 | 12 | 291 | 1.6 | 4.8 | 0.00 | 0.03 | 0.03 | 71 | 1015.7 |
| 20260508085617 | 12 | 290 | 1.6 | 4.8 | 0.00 | 0.03 | 0.03 | 71 | 1015.7 |
| 20260508084503 | 12 | 287 | 1.6 | 6.4 | 0.00 | 0.03 | 0.03 | 71 | 1015.9 |
| 20260508083603 | 11 | 288 | 3.2 | 6.4 | 0.00 | 0.03 | 0.03 | 73 | 1015.8 |
| 20260508082703 | 11 | 270 | 3.2 | 6.4 | 0.00 | 0.03 | 0.03 | 75 | 1015.8 |
| 20260508081803 | 11 | 279 | 3.2 | 9.7 | 0.00 | 0.03 | 0.03 | 74 | 1015.7 |
| 20260508080903 | 11 | 275 | 3.2 | 11.3 | 0.00 | 0.03 | 0.03 | 75 | 1015.6 |
| 20260508080003 | 11 | 284 | 3.2 | 9.7 | 0.00 | 0.03 | 0.03 | 76 | 1015.5 |
| 20260508075403 | 11 | 289 | 3.2 | 9.7 | 0.00 | 0.03 | 0.03 | 77 | 1015.5 |
| 20260508074503 | 11 | 281 | 3.2 | 6.4 | 0.00 | 0.03 | 0.03 | 78 | 1015.7 |
| 20260508073603 | 11 | 269 | 1.6 | 6.4 | 0.00 | 0.03 | 0.03 | 82 | 1015.7 |
| 20260508072703 | 10 | 273 | 1.6 | 6.4 | 0.00 | 0.03 | 0.03 | 82 | 1015.6 |
| 20260508071803 | 10 | 288 | 1.6 | 6.4 | 0.00 | 0.03 | 0.03 | 82 | 1015.4 |
| 20260508070903 | 10 | 316 | 1.6 | 4.8 | 0.00 | 0.03 | 0.03 | 84 | 1015.2 |
| 20260508070218 | 10 | 303 | 1.6 | 4.8 | 0.00 | 0.03 | 0.03 | 84 | 1015.1 |
| 20260508065618 | 10 | 295 | 1.6 | 4.8 | 0.00 | 0.03 | 0.03 | 85 | 1015.1 |
| 20260508064504 | 10 | 310 | 1.6 | 3.2 | 0.00 | 0.03 | 0.03 | 86 | 1014.7 |
| 20260508063816 | 10 | 316 | 1.6 | 3.2 | 0.00 | 0.03 | 0.03 | 86 | 1015.1 |
| 20260508062703 | 9 | 311 | 1.6 | 4.8 | 0.03 | 0.03 | 0.03 | 86 | 1015.0 |
| 20260508061803 | 9 | 288 | 0.0 | 3.2 | 0.03 | 0.03 | 0.03 | 86 | 1014.9 |
| 20260508060903 | 9 | 309 | 1.6 | 4.8 | 0.03 | 0.03 | 0.03 | 86 | 1014.7 |
| 20260508060004 | 9 | 314 | 1.6 | 4.8 | 0.03 | 0.03 | 0.03 | 86 | 1014.7 |
| 20260508055617 | 9 | 317 | 1.6 | 3.2 | 0.03 | 0.03 | 0.03 | 86 | 1014.6 |
| 20260508054503 | 9 | 302 | 0.0 | 1.6 | 0.03 | 0.03 | 0.03 | 86 | 1014.5 |
| 20260508053603 | 9 | 288 | 1.6 | 4.8 | 0.00 | 0.00 | 0.00 | 85 | 1014.3 |
| 20260508052703 | 9 | 302 | 0.0 | 4.8 | 0.00 | 0.00 | 0.00 | 85 | 1014.3 |
| 20260508051803 | 9 | 296 | 1.6 | 4.8 | 0.00 | 0.00 | 0.00 | 85 | 1014.2 |
| 20260508050903 | 9 | 295 | 1.6 | 3.2 | 0.00 | 0.00 | 0.00 | 84 | 1014.2 |
| 20260508050004 | 9 | 290 | 1.6 | 4.8 | 0.00 | 0.00 | 0.00 | 83 | 1014.4 |
| 20260508045403 | 9 | 291 | 1.6 | 4.8 | 0.00 | 0.00 | 0.00 | 82 | 1013.9 |
| 20260508044503 | 9 | 298 | 1.6 | 6.4 | 0.00 | 0.00 | 0.00 | 82 | 1013.9 |
| 20260508043603 | 9 | 292 | 3.2 | 6.4 | 0.00 | 0.00 | 0.00 | 82 | 1013.9 |
| 20260508042703 | 9 | 289 | 3.2 | 6.4 | 0.00 | 0.00 | 0.00 | 82 | 1013.9 |
| 20260508041803 | 9 | 296 | 1.6 | 6.4 | 0.00 | 0.00 | 0.00 | 81 | 1013.8 |
| 20260508040903 | 9 | 298 | 1.6 | 4.8 | 0.00 | 0.00 | 0.00 | 81 | 1013.8 |
| 20260508040003 | 9 | 314 | 1.6 | 6.4 | 0.00 | 0.00 | 0.00 | 81 | 1013.8 |
| 20260508035403 | 9 | 308 | 1.6 | 4.8 | 0.00 | 0.00 | 0.00 | 81 | 1013.6 |
| 20260508034503 | 9 | 299 | 1.6 | 4.8 | 0.00 | 0.00 | 0.00 | 81 | 1013.7 |
| 20260508033603 | 9 | 323 | 1.6 | 6.4 | 0.00 | 0.00 | 0.00 | 81 | 1013.7 |
| 20260508032703 | 9 | 307 | 1.6 | 3.2 | 0.00 | 0.00 | 0.00 | 81 | 1013.8 |
| 20260508031803 | 9 | 301 | 3.2 | 6.4 | 0.00 | 0.00 | 0.00 | 81 | 1013.6 |
| 20260508030903 | 9 | 301 | 3.2 | 6.4 | 0.00 | 0.00 | 0.00 | 80 | 1013.7 |
| 20260508030003 | 9 | 298 | 1.6 | 6.4 | 0.00 | 0.00 | 0.00 | 79 | 1013.5 |
| 20260508025403 | 10 | 296 | 3.2 | 11.3 | 0.00 | 0.00 | 0.00 | 78 | 1013.5 |
| 20260508024503 | 9 | 296 | 1.6 | 6.4 | 0.00 | 0.00 | 0.00 | 76 | 1013.6 |
| 20260508023603 | 9 | 282 | 1.6 | 6.4 | 0.00 | 0.00 | 0.00 | 76 | 1013.6 |
| 20260508022703 | 9 | 290 | 1.6 | 6.4 | 0.00 | 0.00 | 0.00 | 76 | 1013.6 |
| 20260508021803 | 9 | 298 | 1.6 | 6.4 | 0.00 | 0.00 | 0.00 | 77 | 1013.6 |
| 20260508020903 | 9 | 301 | 1.6 | 4.8 | 0.00 | 0.00 | 0.00 | 77 | 1013.5 |
| 20260508020004 | 9 | 317 | 1.6 | 4.8 | 0.00 | 0.00 | 0.00 | 78 | 1013.5 |
| 20260508015403 | 9 | 313 | 1.6 | 3.2 | 0.00 | 0.00 | 0.00 | 78 | 1013.4 |
| 20260508014504 | 10 | 305 | 1.6 | 6.4 | 0.00 | 0.00 | 0.00 | 78 | 1013.5 |
| 20260508013603 | 10 | 289 | 1.6 | 6.4 | 0.00 | 0.00 | 0.00 | 77 | 1013.5 |
| 20260508012918 | 10 | 288 | 1.6 | 6.4 | 0.00 | 0.00 | 0.00 | 77 | 1013.8 |
| 20260508011803 | 10 | 299 | 0.0 | 3.2 | 0.00 | 0.00 | 0.00 | 77 | 1013.9 |
| 20260508010903 | 10 | 291 | 1.6 | 4.8 | 0.00 | 0.00 | 0.00 | 76 | 1014.0 |
| 20260508010218 | 10 | 287 | 1.6 | 6.4 | 0.00 | 0.00 | 0.00 | 76 | 1013.9 |
| 20260508005403 | 10 | 291 | 1.6 | 6.4 | 0.00 | 0.00 | 0.00 | 76 | 1013.6 |
| 20260508004503 | 10 | 296 | 1.6 | 4.8 | 0.00 | 0.00 | 0.00 | 76 | 1013.8 |
| 20260508003603 | 10 | 278 | 1.6 | 6.4 | 0.00 | 0.00 | 0.00 | 76 | 1013.7 |
| 20260508002703 | 10 | 297 | 1.6 | 6.4 | 0.00 | 0.00 | 0.00 | 77 | 1013.9 |
| 20260508002017 | 10 | 294 | 0.0 | 3.2 | 0.00 | 0.00 | 0.00 | 77 | 1013.8 |
| 20260508000903 | 10 | 302 | 1.6 | 4.8 | 0.00 | 0.00 | 0.00 | 77 | 1013.8 |
| 20260508000219 | 10 | 295 | 1.6 | 4.8 | 0.00 | 0.00 | 0.00 | 76 | 1013.7 |
| 20260507235403 | 10 | 299 | 1.6 | 3.2 | 0.00 | 0.00 | 0.00 | 75 | 1013.8 |
| 20260507234503 | 9 | 295 | 1.6 | 3.2 | 0.00 | 0.00 | 0.00 | 75 | 1013.6 |
| 20260507233818 | 9 | 296 | 1.6 | 3.2 | 0.00 | 0.00 | 0.00 | 75 | 1013.4 |
| 20260507232703 | 9 | 325 | 0.0 | 3.2 | 0.00 | 0.00 | 0.00 | 76 | 1013.5 |
| 20260507231803 | 9 | 322 | 1.6 | 4.8 | 0.00 | 0.00 | 0.00 | 76 | 1013.6 |
| 20260507230903 | 9 | 308 | 1.6 | 4.8 | 0.00 | 0.00 | 0.00 | 77 | 1013.4 |
| 20260507230217 | 9 | 313 | 1.6 | 3.2 | 0.00 | 0.00 | 0.00 | 77 | 1013.5 |
| 20260507225403 | 9 | 343 | 1.6 | 3.2 | 0.00 | 0.00 | 0.00 | 77 | 1013.6 |
| 20260507224504 | 9 | 27 | 0.0 | 3.2 | 0.00 | 0.00 | 0.00 | 77 | 1013.5 |
| 20260507223603 | 10 | 301 | 1.6 | 9.7 | 0.00 | 0.00 | 0.00 | 76 | 1013.5 |
| 20260507222703 | 10 | 292 | 0.0 | 4.8 | 0.00 | 0.00 | 0.00 | 76 | 1013.4 |
| 20260507221803 | 10 | 318 | 0.0 | 3.2 | 0.00 | 0.00 | 0.00 | 75 | 1013.5 |
| 20260507220903 | 10 | 301 | 0.0 | 3.2 | 0.00 | 0.00 | 0.00 | 73 | 1013.5 |
| 20260507220003 | 10 | 306 | 0.0 | 4.8 | 0.00 | 0.00 | 0.00 | 73 | 1013.5 |
| 20260507215618 | 10 | 290 | 0.0 | 4.8 | 0.00 | 0.00 | 0.00 | 72 | 1013.4 |
| 20260507214718 | 10 | 252 | 1.6 | 4.8 | 0.00 | 0.00 | 0.00 | 72 | 1013.5 |
| 20260507213603 | 10 | 328 | 0.0 | 3.2 | 0.00 | 0.00 | 0.00 | 72 | 1013.5 |
| 20260507212703 | 10 | 345 | 0.0 | 3.2 | 0.00 | 0.00 | 0.00 | 71 | 1013.3 |
| 20260507211803 | 10 | 31 | 0.0 | 3.2 | 0.00 | 0.00 | 0.00 | 70 | 1013.3 |
| 20260507210903 | 10 | 290 | 0.0 | 1.6 | 0.00 | 0.00 | 0.00 | 69 | 1013.3 |
| 20260507210003 | 10 | 315 | 1.6 | 3.2 | 0.00 | 0.00 | 0.00 | 69 | 1013.2 |
| 20260507205403 | 10 | 341 | 0.0 | 3.2 | 0.00 | 0.00 | 0.00 | 69 | 1013.6 |
| 20260507204504 | 11 | 309 | 0.0 | 1.6 | 0.00 | 0.00 | 0.00 | 69 | 1013.2 |
| 20260507203603 | 11 | 309 | 0.0 | 1.6 | 0.00 | 0.00 | 0.00 | 68 | 1013.3 |
| 20260507202703 | 11 | 313 | 0.0 | 3.2 | 0.00 | 0.00 | 0.00 | 67 | 1013.2 |
| 20260507201803 | 11 | 315 | 0.0 | 1.6 | 0.00 | 0.00 | 0.00 | 67 | 1013.2 |
| 20260507200903 | 11 | 312 | 0.0 | 1.6 | 0.00 | 0.00 | 0.00 | 66 | 1013.0 |
| 20260507200003 | 11 | 314 | 0.0 | 3.2 | 0.00 | 0.00 | 0.00 | 65 | 1012.9 |
| 20260507195403 | 11 | 298 | 1.6 | 3.2 | 0.00 | 0.00 | 0.00 | 65 | 1013.0 |
| 20260507194503 | 11 | 300 | 1.6 | 4.8 | 0.00 | 0.00 | 0.00 | 64 | 1013.1 |
| 20260507193603 | 11 | 302 | 1.6 | 3.2 | 0.00 | 0.00 | 0.00 | 64 | 1012.8 |
| 20260507192703 | 11 | 301 | 0.0 | 3.2 | 0.00 | 0.00 | 0.00 | 64 | 1012.7 |
| 20260507192017 | 11 | 318 | 0.0 | 3.2 | 0.00 | 0.00 | 0.00 | 64 | 1013.0 |
| 20260507190903 | 11 | 314 | 0.0 | 3.2 | 0.00 | 0.00 | 0.00 | 63 | 1012.8 |
| 20260507190004 | 11 | 305 | 0.0 | 1.6 | 0.00 | 0.00 | 0.00 | 62 | 1012.9 |
| 20260507185403 | 12 | 300 | 0.0 | 3.2 | 0.00 | 0.00 | 0.00 | 61 | 1012.7 |
| 20260507184504 | 12 | 288 | 0.0 | 3.2 | 0.00 | 0.00 | 0.00 | 61 | 1012.8 |
| 20260507183603 | 12 | 293 | 1.6 | 3.2 | 0.00 | 0.00 | 0.00 | 60 | 1012.7 |
| 20260507182703 | 12 | 309 | 1.6 | 9.7 | 0.00 | 0.00 | 0.00 | 59 | 1012.6 |
| 20260507181803 | 12 | 299 | 1.6 | 6.4 | 0.00 | 0.00 | 0.00 | 58 | 1012.7 |
| 20260507180903 | 13 | 304 | 3.2 | 6.4 | 0.00 | 0.00 | 0.00 | 57 | 1012.5 |
| 20260507180004 | 13 | 305 | 3.2 | 11.3 | 0.00 | 0.00 | 0.00 | 57 | 1012.5 |
| 20260507175403 | 13 | 309 | 3.2 | 11.3 | 0.00 | 0.00 | 0.00 | 57 | 1012.7 |
| 20260507174718 | 13 | 308 | 3.2 | 9.7 | 0.00 | 0.00 | 0.00 | 59 | 1012.6 |
| 20260507173603 | 13 | 292 | 1.6 | 11.3 | 0.00 | 0.00 | 0.00 | 59 | 1012.5 |
| 20260507172703 | 13 | 298 | 3.2 | 9.7 | 0.00 | 0.00 | 0.00 | 59 | 1012.7 |
| 20260507172018 | 13 | 292 | 3.2 | 9.7 | 0.00 | 0.00 | 0.00 | 60 | 1012.8 |
| 20260507170903 | 13 | 283 | 3.2 | 6.4 | 0.00 | 0.00 | 0.00 | 60 | 1012.8 |
| 20260507170003 | 13 | 281 | 3.2 | 6.4 | 0.00 | 0.00 | 0.00 | 59 | 1012.9 |
| 20260507165403 | 13 | 279 | 3.2 | 9.7 | 0.00 | 0.00 | 0.00 | 61 | 1013.0 |
| 20260507164503 | 13 | 280 | 3.2 | 9.7 | 0.00 | 0.00 | 0.00 | 60 | 1013.1 |
| 20260507163603 | 13 | 281 | 4.8 | 9.7 | 0.00 | 0.00 | 0.00 | 60 | 1012.6 |
| 20260507162703 | 13 | 293 | 3.2 | 9.7 | 0.00 | 0.00 | 0.00 | 60 | 1012.9 |
| 20260507161803 | 13 | 298 | 3.2 | 6.4 | 0.00 | 0.00 | 0.00 | 61 | 1013.0 |
| 20260507160903 | 12 | 286 | 3.2 | 11.3 | 0.00 | 0.00 | 0.00 | 63 | 1012.9 |
| 20260507160003 | 13 | 295 | 1.6 | 9.7 | 0.00 | 0.00 | 0.00 | 62 | 1012.9 |
| 20260507155403 | 13 | 296 | 1.6 | 6.4 | 0.00 | 0.00 | 0.00 | 62 | 1013.0 |
| 20260507154718 | 13 | 293 | 1.6 | 9.7 | 0.00 | 0.00 | 0.00 | 61 | 1012.9 |
| 20260507153817 | 13 | 305 | 3.2 | 9.7 | 0.00 | 0.00 | 0.00 | 61 | 1012.8 |
| 20260507152703 | 13 | 294 | 3.2 | 9.7 | 0.00 | 0.00 | 0.00 | 61 | 1013.3 |
| 20260507151803 | 13 | 289 | 3.2 | 14.5 | 0.00 | 0.00 | 0.00 | 59 | 1012.9 |
| 20260507150903 | 13 | 306 | 3.2 | 11.3 | 0.00 | 0.00 | 0.00 | 60 | 1013.2 |
| 20260507150004 | 13 | 297 | 3.2 | 9.7 | 0.00 | 0.00 | 0.00 | 61 | 1013.2 |
| 20260507145618 | 13 | 300 | 3.2 | 9.7 | 0.00 | 0.00 | 0.00 | 62 | 1013.3 |
| 20260507144503 | 12 | 304 | 1.6 | 4.8 | 0.00 | 0.00 | 0.00 | 63 | 1013.1 |
| 20260507143603 | 12 | 297 | 1.6 | 6.4 | 0.00 | 0.00 | 0.00 | 66 | 1013.2 |
| 20260507142703 | 11 | 291 | 3.2 | 4.8 | 0.00 | 0.00 | 0.00 | 70 | 1013.4 |
| 20260507141803 | 11 | 294 | 1.6 | 4.8 | 0.00 | 0.00 | 0.00 | 70 | 1013.5 |
| 20260507141117 | 11 | 298 | 3.2 | 4.8 | 0.00 | 0.00 | 0.00 | 68 | 1013.5 |
| 20260507140004 | 11 | 287 | 1.6 | 4.8 | 0.00 | 0.00 | 0.00 | 65 | 1013.7 |
| 20260507135618 | 11 | 291 | 1.6 | 6.4 | 0.00 | 0.00 | 0.00 | 66 | 1013.7 |
| 20260507134503 | 11 | 302 | 1.6 | 4.8 | 0.00 | 0.00 | 0.00 | 68 | 1013.7 |